DELTA 1 DEB, 39098

Orbit data source: Space-Track

DELTA 1 DEB, 39098 is space debris in LEO originally from a launch on Thu, 14 Jul 1977 UTC launched from the Air Force Eastern Test Range (AFETR). Debris objects in space refer to the collection of defunct objects orbiting the Earth. Examples of debris include non-operational satellites, rocket bodies, and fragments generated from explosions, collisions, or faulty payload assembly.

Loading next visibility...
Identifier
39098, 1977-065GK
Orbit
LEO
Country
Flag of USUS
Related business
Manufacturer
Unknown
Mission
Spacecraft
Bus & Motor
Unknown
Mass
Unknown
Launch date (UTC)
1977-07-14 (48 years ago)
Launch vehicle
Unknown
Launch site
Air Force Eastern Test Range (AFETR)
Object type
Payload
Rocket body
Debris
Shape & HBR
Unknown shape, 0.1 m
Radar Cross Section
Small (<0.1 m²)

Expand to show TLE details & history
Last TLE update: 18 hours ago

TLE from 18 hours ago
0 DELTA 1 DEB
1 39098U 77065GK  25297.52541985  .00005024  00000-0  82592-3 0  9998
2 39098  29.0361 241.3509 0530255 256.5891  97.5066 14.04431787592167
Epoch: 2025-10-24T12:36Z
TLE epoch observation values (Epoch: 2025-10-24T12:36:36.275Z)
Latitude
-0°
Longitude
19.03068°
Altitude
946.942 km
Speed
7.345 km/s
True Right ascension
16h 05m 24s
True Declination
0° 00' 00"
Sunlit
Object was in daylight at epoch
Visualization orbit readout
Latitude
Unknown
Longitude
Unknown
Altitude
Unknown
Speed
Unknown
Apparent Right ascension
Unknown
Apparent Declination
Unknown
Sunlit
N/A
Visualization observer readout
Local Sidereal Time
02:08:03
Azimuth
Unknown
Elevation
Unknown
Doppler factor
Unknown
Orbital elements
Apogee altitude
1,267.432 km
Perigee altitude
497.441 km
Semi-major axis
7,260.573 km
Eccentricity
0.05303
Inclination
29.0361°
RAAN
241.3509°
Arg. of periapsis
256.5891°
True anomaly
103.4683°
Mean anomaly
97.5066°
Eccentric anomaly
100.49392°
Mean motion
3.50822 °/min
Orbital period
102.62 mins
BSTAR
0.00082592
Loading maneuver chart data...
Computing Atmospheric mass density...

Documentation

Showing up to 5 results
|